Weather History for Flint, MI

Change the Weather History Date:

Tuesday, October 1, 2013

  Actual Average Record
Temperature  
Mean Temperature 63 °F 55 °F  
Max Temperature 77 °F 66 °F 89 °F (2002)
Min Temperature 48 °F 44 °F 28 °F (1960)
Degree Days  
Heating Degree Days 2 11  
Month to date heating degree days 2 11  
Since 1 July heating degree days 176 221  
Cooling Degree Days 0 1  
Month to date cooling degree days 0 1  
Year to date cooling degree days 743 527  
Growing Degree Days 12 (Base 50)    
Moisture  
Dew Point 56 °F    
Average Humidity 74    
Maximum Humidity 93    
Minimum Humidity 54    
Precipitation  
Precipitation 0.00 in 0.10 in 1.20 in (1933)
Month to date precipitation 0.00 0.10  
Year to date precipitation 26.20 24.41  
Snow  
Snow 0.00 in 0.00 in T in ()
Month to date snowfall 0.0 0.0  
Since 1 July snowfall 0.0 0.0  
Since 1 September snowfall 0.0 0.0  
Snow Depth 0.00 in    
Sea Level Pressure  
Sea Level Pressure 29.96 in    
Wind  
Wind Speed 9 mph (SW)    
Max Wind Speed 18 mph    
Max Gust Speed 26 mph    
Visibility 8 miles    
Events      
T = Trace of Precipitation, MM = Missing Value Source: NWS Daily Summary

Daily Weather History Graph

Daily Weather History Graph

Search for Another Location

Airport:

Trip Planner

Search our weather history database for the weather conditions in past years. The results will help you decide how hot, cold, wet, or windy it might be!

Date:

Astronomy

Oct. 01, 2013 Rise Set
Actual Time 7:32 AM EDT 7:15 PM EDT
Civil Twilight 7:04 AM EDT 7:44 PM EDT
Nautical Twilight 6:31 AM EDT 8:16 PM EDT
Astronomical Twilight 5:58 AM EDT 8:50 PM EDT
Moon 4:01 AM EDT (10/1) 5:22 PM EDT (10/1)
Length of Visible Light 12h 39m
Length of Day
11h 43m
Waning Crescent, 12% of the Moon is Illuminated
Oct 1
Waning Crescent
Oct 4
New
Oct 11
First Quarter
Oct 18
Full
Oct 26
Last Quarter

Hourly Weather History & Observations

Time (EDT) Temp. Dew Point Humidity Pressure Visibility Wind Dir Wind Speed Gust Speed Precip Events Conditions
12:53 AM 54.0 °F 50.0 °F 86% 29.96 in 10.0 mi South 4.6 mph - N/A   Clear
1:53 AM 48.0 °F 46.0 °F 93% 29.97 in 3.0 mi South 3.5 mph - N/A   Clear
2:53 AM 51.1 °F 48.9 °F 92% 29.96 in 8.0 mi Calm Calm - N/A   Clear
3:53 AM 53.1 °F 50.0 °F 89% 29.97 in 9.0 mi SSW 3.5 mph - N/A   Clear
4:53 AM 55.0 °F 51.1 °F 86% 29.97 in 10.0 mi SSW 5.8 mph - N/A   Clear
5:53 AM 55.9 °F 51.1 °F 84% 29.97 in 10.0 mi SSW 5.8 mph - N/A   Clear
6:53 AM 57.0 °F 52.0 °F 83% 29.98 in 10.0 mi SW 4.6 mph - N/A   Clear
7:53 AM 57.0 °F 53.1 °F 87% 29.99 in 6.0 mi SSW 3.5 mph - N/A   Clear
8:53 AM 62.1 °F 57.9 °F 86% 29.99 in 5.0 mi SSW 8.1 mph - N/A   Clear
9:09 AM 62.6 °F 57.2 °F 82% 29.99 in 5.0 mi SW 12.7 mph 18.4 mph N/A   Partly Cloudy
9:20 AM 60.8 °F 57.2 °F 88% 30.00 in 3.0 mi SW 8.1 mph 18.4 mph N/A   Mostly Cloudy
9:53 AM 61.0 °F 57.9 °F 90% 30.00 in 3.0 mi SSW 10.4 mph - N/A   Overcast
10:53 AM 63.0 °F 59.0 °F 87% 30.01 in 5.0 mi SW 10.4 mph - N/A   Overcast
11:49 AM 68.0 °F 60.8 °F 78% 29.99 in 8.0 mi SW 10.4 mph - N/A   Overcast
11:53 AM 66.9 °F 59.0 °F 76% 29.99 in 8.0 mi SW 10.4 mph - N/A   Overcast
12:30 PM 71.6 °F 60.8 °F 69% 29.97 in 10.0 mi SSW 8.1 mph 16.1 mph N/A   Scattered Clouds
12:53 PM 72.0 °F 60.1 °F 66% 29.97 in 10.0 mi SW 12.7 mph - N/A   Partly Cloudy
1:53 PM 75.9 °F 60.1 °F 58% 29.94 in 10.0 mi SW 12.7 mph 20.7 mph N/A   Partly Cloudy
2:37 PM 77.0 °F 60.8 °F 57% 29.94 in 10.0 mi WSW 18.4 mph 23.0 mph N/A   Mostly Cloudy
2:44 PM 77.0 °F 59.0 °F 54% 29.94 in 10.0 mi WSW 13.8 mph 23.0 mph N/A   Mostly Cloudy
2:53 PM 75.0 °F 59.0 °F 57% 29.93 in 10.0 mi WSW 16.1 mph - N/A   Mostly Cloudy
3:53 PM 75.9 °F 57.9 °F 54% 29.92 in 10.0 mi SSW 16.1 mph 21.9 mph N/A   Partly Cloudy
4:53 PM 75.0 °F 59.0 °F 57% 29.92 in 10.0 mi WSW 16.1 mph 23.0 mph N/A   Scattered Clouds
5:53 PM 72.0 °F 57.9 °F 61% 29.93 in 10.0 mi WSW 15.0 mph 19.6 mph N/A   Mostly Cloudy
6:53 PM 70.0 °F 57.9 °F 65% 29.91 in 10.0 mi SW 10.4 mph 24.2 mph N/A   Clear
7:53 PM 66.9 °F 57.9 °F 73% 29.94 in 10.0 mi SW 8.1 mph - N/A   Partly Cloudy
8:53 PM 66.0 °F 59.0 °F 78% 29.94 in 10.0 mi SSW 5.8 mph - N/A   Clear
9:53 PM 64.9 °F 59.0 °F 81% 29.94 in 10.0 mi SSW 5.8 mph - N/A   Clear
10:53 PM 64.0 °F 57.9 °F 80% 29.94 in 10.0 mi SSW 8.1 mph - N/A   Clear
11:53 PM 64.9 °F 59.0 °F 81% 29.94 in 10.0 mi SSW 8.1 mph - N/A   Clear